Voltar ao catálogo

OTB-3-GAZELLE

AtivoCiênciaSSO
NORAD 54023·PAYLOAD·🇺🇸 United States

Lançado Oct 7, 2022 de Rocket Lab Launch Complex 1

Loading…

Próximas Passagens (próximas 24 horas)

TLE

AtualizadoSource: Space-Track

Época: Sep 14, 2026, 17:40 UTC

1 54023U 22127A   26257.73615849  .00000076  00000-0  36026-4 0  9997
2 54023  98.4033 248.1145 0011910 280.0935  79.8911 14.42701159207274

Acompanhe OTB-3-GAZELLE em tempo real com AllMySat

Download on the App Store